Terminal Aerodrome Forecast
Issued by NWS Cheyenne, WY

Home | Current Version | Previous Version | Text Only | Print | Product List | Glossary On
Versions: 1 2 3 4 5 6 7 8 9 10 11 12 13 14 15 16 17 18 19 20 21 22 23 24 25 26 27 28 29 30
000
FTUS45 KCYS 191100
TAFCYS
TAF
KCYS 191121Z 1912/2012 28010G20KT P6SM SCT100
     FM191500 34012G22KT P6SM SCT080
     FM191900 34012G22KT P6SM VCTS BKN090CB
     FM200100 30008KT P6SM BKN100=

USA.gov is the U.S. government's official web portal to all federal, state and local government web resources and services.